STARLINK-34733, 66487

Orbit data source: Space-Track

STARLINK-34733, 66487 is a payload satellite owned by SpaceX/Seattle (US) in LEO that was launched on Sat, 15 Nov 2025 UTC via an FALCON 9 launch vehicle from the Air Force Eastern Test Range (AFETR). Payload-class satellites include a variety of spacecraft equipped with specific instruments for various scientific and technological missions. These include communications satellites like Starlink; space stations such as the ISS; scientific satellites like the Hubble; Earth observation satellites from companies like Planet Labs, Umbra, and HawkEye 360; GPS; miniature CubeSats for education and research; and military/defense satellites.

Loading next visibility...
Identifier
66487, 2025-263C
Orbit
LEO
Country
Flag of USUS
Related business
Manufacturer
SpaceX/Seattle
Mission
Operational Commercial Communications
Bus & Motor
STARLINK V2MO, Unknown motor
Mass
575 kg wet, ~530 kg dry
Launch date (UTC)
2025-11-15 (7 months ago)
Launch vehicle
FALCON 9
Launch site
Air Force Eastern Test Range (AFETR)
Object type
Payload
Rocket body
Debris
Shape & HBR
Box + 2 Pan, 17.7 m
Radar Cross Section
36.964 m², Large (>1 m²)

Expand to show TLE details & history
Last TLE update: 15 hours ago

TLE from 15 hours ago
0 STARLINK-34733
1 66487U 25263C   26171.22125002  .00015364  00000-0  56631-3 0  9993
2 66487  43.0030 131.3211 0001660 270.2305  89.8356 15.27601162 34587
Epoch: 2026-06-20T05:18Z
TLE epoch observation values (Epoch: 2026-06-20T05:18:36.001Z)
Latitude
-0.00006°
Longitude
143.23204°
Altitude
482.758 km
Speed
7.626 km/s
True Right ascension
08h 45m 17s
True Declination
0° 00' 00"
Sunlit
Object was in daylight at epoch
Visualization orbit readout
Latitude
Unknown
Longitude
Unknown
Altitude
Unknown
Speed
Unknown
Apparent Right ascension
Unknown
Apparent Declination
Unknown
Sunlit
N/A
Visualization observer readout
Local Sidereal Time
07:17:19
Azimuth
Unknown
Elevation
Unknown
Doppler factor
Unknown
Orbital elements
Apogee altitude
486.07 km
Perigee altitude
483.791 km
Semi-major axis
6,863.067 km
Eccentricity
0.00017
Inclination
43.003°
RAAN
131.3211°
Arg. of periapsis
270.2305°
True anomaly
89.85462°
Mean anomaly
89.8356°
Eccentric anomaly
89.84511°
Mean motion
3.81738 °/min
Orbital period
94.31 mins
BSTAR
0.00056631
Loading maneuver chart data...
Computing Atmospheric mass density...
Loading historical data...
Loading historical data...
Loading historical data...
Loading historical data...
Loading historical data...
Loading historical data...
Loading historical data...

Documentation

Showing up to 5 results
|